World > North America > United States > South Carolina > Fruit Hill

Fruit Hill, SC Hourly Weather Conditions

Feedback E-mail the Weather

Quick WX

Fruit Hill, SC Weather Maps

°F °C°F °C
Fruit Hill Weather Map
UTC Time: 12/7/2022, 04:40
Your Time:

Fruit Hill, SC Regional Weather

Expires:202212070500;;430618
ASUS42 KCAE 070410
RWRCAE
REGIONAL WEATHER ROUNDUP
NATIONAL WEATHER SERVICE COLUMBIA SC
1100 PM EST TUE DEC 06 2022

NOTE: "FAIR" INDICATES FEW OR NO CLOUDS BELOW 12,000 FEET WITH NO
SIGNIFICANT WEATHER AND/OR OBSTRUCTIONS TO VISIBILITY.

NOT ALL STATIONS ARE QUALITY CONTROLLED BY THE NATIONAL 
WEATHER SERVICE. USE DATA WITH CAUTION...ESPECIALLY 
DEWPOINT OBSERVATIONS.


SCZ001>059-115-116-135>137-GAZ040-063>065-077-070500-
...UPSTATE SOUTH CAROLINA...
  
CITY           SKY/WX    TMP DP  RH WIND       PRES   REMARKS
ANDERSON       FOG       51  51 100 CALM      30.26R VSB 3/4          
LIBERTY        FOG       50  50 100 MISG      30.25S VSB 3/4          
SPARTANBURG    FOG       46  46 100 CALM      30.26R VSB 1/4          
CLEMSON        FOG       50  50 100 CALM      30.27R VSB 3/4          
GREENVILLE     FOG       51  49  92 NE5       30.26R VSB 1/2          
GREENWOOD      FOG       49  49 100 CALM      30.27R VSB 1/4          
GREER          FOG       49  48  97 CALM      30.26S VSB 1/2          
ROCK HILL      CLOUDY    51  51 100 CALM      30.26S FOG              
CHESTER        CLOUDY    50  50 100 CALM      30.27S FOG              
LAURENS        FOG       48  48 100 CALM      30.25S VSB 3/4          


...CENTRAL SOUTH CAROLINA...
  
CITY           SKY/WX    TMP DP  RH WIND       PRES   REMARKS
COLUMBIA APT   FOG       55  55 100 CALM      30.26R VSB 1/4          
COLUMBIA OWENS FOG       57  56  96 CALM      30.27R VSB 1/4          
MCENTIRE ANGB  FOG       57  57 100 CALM      30.24R VSB 3/4          
ORANGEBURG     FOG       59  59 100 CALM      30.25R VSB 1/2          
SUMTER SHAW    CLOUDY    59  58  96 CALM      30.25R FOG              
AIKEN          FOG       59  58  99 CALM      30.25S VSB 1/4          
BARNWELL       FOG       61  61 100 CALM      30.25R VSB 1/4          
MANNING        CLOUDY    61  59  94 CALM      30.26S FOG              
CAMDEN         FOG       57  57 100 CALM      30.27R VSB<1/4          
LANCASTER      FOG       52  52 100 CALM      30.26S VSB 1/4          
WINNSBORO      FOG       50  50 100 CALM      30.26S VSB 1/2          


...EASTERN AND COASTAL SOUTH CAROLINA...
  
CITY           SKY/WX    TMP DP  RH WIND       PRES   REMARKS
MYRTLE BEACH   PTCLDY    61  61 100 CALM      30.27R                  
N MYRTLE BCH   PTCLDY    59  59 100 CALM      30.26R                  
CONWAY         FAIR      61  59  94 CALM      30.26R                  
MARION         CLOUDY    63  59  88 CALM      30.26S                  
HARTSVILLE     CLOUDY    57  57 100 CALM      30.26R FOG              
FLORENCE       CLOUDY    62  61  96 SE3       30.26R                  
DARLINGTON     CLOUDY    59  59 100 CALM      30.26S                  
CHARLESTON APT MOCLDY    65  61  87 CALM      30.25S                  
MOUNT PLEASANT CLOUDY    63  63 100 CALM      30.26R                  
WALTERBORO     CLOUDY    63  63 100 CALM      30.27R                  
BEAUFORT       MOCLDY    65  62  90 CALM      30.25S                  
HILTON HEAD    MOCLDY    63  63 100 CALM      30.26                   


...EASTERN GEORGIA...
  
CITY           SKY/WX    TMP DP  RH WIND       PRES   REMARKS
AUGUSTA BUSH F FOG       57  57 100 CALM      30.24S VSB 1/4          
AUGUSTA DANIEL FOG       57  57 100 NW3       30.25R VSB 1/4          
THOMSON        FOG       52  52  99 CALM      30.26R VSB 1/4          
WASHINGTON     FOG       50  50 100 CALM      30.25S VSB 1/4          
CLAXTON        FAIR      64  63  96 CALM      30.26R FOG              
SYLVANIA       FOG       64  63  97 CALM      30.26S VSB 3/4          
STATESBORO     MOCLDY    63  61  94 CALM      30.26R FOG              
SAVANNAH       MOCLDY    69  59  70 CALM      30.25S                  


...SOUTHERN NORTH CAROLINA...
  
CITY           SKY/WX    TMP DP  RH WIND       PRES   REMARKS
CHARLOTTE        N/A     50  48  93 NW3       30.26R FOG              
MONROE         FOG       51  50  96 CALM      30.25S VSB 1/4          
WADESBORO      CLOUDY    53  51  94 CALM      30.26S FOG              
ROCKINGHAM     MOCLDY    56  56  97 CALM      30.25F FOG              
RUTHERFORDTON  FOG       46  46 100 CALM      30.28R VSB 1/4          
ASHEVILLE      CLOUDY    49  48  97 S7        30.24R                  

$$
  

SKY/WX - Weather  TMP - Temperature  DP - Dew Point  RH - Humidity
WIND - Wind Direction/Speed PRES - Barometric Pressure VSB - Visibility
WCI - Wind Chill Index E13G22 Wind - East Wind 13 mph/Gusts of 22 mph

Trending Headlines

Trending Entertainment Headlines

Fruit Hill Radar Loop

Use the map search tool if you want to place a location marker on the radar map...

Fruit Hill Quick Facts

National Two Day Weather Forecast


E-mail the Fruit Hill Weather Forecast

Voice your opinion or tell us about page issues...